Content
SEND FEEDBACK

Daily
Averages
Monthly
Summary
Canada

VANCOUVER - CITY HALL, BRITISH COLUMBIA


Home > North America > Canada > British Columbia
Elevation: 283 feet     Latitude: 49 17N     Longitude: 123 07W

WEATHER
 
SELECT A DAY
Number of Records: 170,074;   Date Range: 4/23/95 - 8/26/14
 
SHARE

PRINT THIS DATA

[ ← Previous Day ]
WEATHER ALMANAC - FEBRUARY 5, 2013
[ Next Day → ]
[ °C ]   °F
Weather ElementAverageHighLow
Temperature42.8 °F48 °F (2:00 am)40.3 °F (8:00 pm)
Dewpoint39.9 °F41.5 °F (2:00 pm)37.9 °F (2:00 am)
Humidity89.4 %95 % (6:00 pm)68 % (2:00 am)
Barometer29.79 in29.83 in (11:00 pm)29.75 in (3:00 pm)
Wind Speed3.6 mph6.9 mph (2:00 am)
Weather ElementAverage
Wind DirectionE (90 °)

Weather ElementTotal
Precipitation0.45 in
Heating Degree Days20.9 (Base 65)
Averaged from 27 records on February 5, 2013
WEATHER CONDITIONS BREAKOUT
WIND DIRECTION BREAKOUT
WEATHER BY HOUR - FEBRUARY 5, 2013
[ °C ]   °F
Local TimeTemperatureDewpointHumidityBarometerVisibilityWind DirectionWind SpeedGust SpeedPrecipitationEventsConditions
1:00 AM43.9 °F39.0 °F83 %29.80 inSouth (170°)2.3 mph
2:00 AM48.0 °F37.9 °F68 %29.80 inEast (80°)6.9 mph
3:00 AM46.2 °F38.5 °F74 %29.81 inEast (90°)4.6 mph
4:00 AM43.0 °F40.0 °F87 %29.79 inENE (70°)3.5 mph
4:00 AM43.2 °F40.5 °F90 %29.79 inENE (70°)3.5 mph0.02 in
5:00 AM42.6 °F40.5 °F92 %29.79 inENE (70°)5.8 mph0.05 in
6:00 AM42.3 °F40.3 °F93 %29.79 inEast (80°)3.5 mph0.03 in
7:00 AM42.3 °F40.5 °F93 %29.79 inEast (80°)3.5 mph0.04 in
8:00 AM42.3 °F40.6 °F94 %29.80 inEast (80°)3.5 mph0.03 in
9:00 AM42.1 °F40.3 °F93 %29.81 inEast (90°)3.5 mph
10:00 AM43.0 °F41.0 °F88 %29.81 inEast (80°)3.5 mph
10:00 AM42.6 °F40.6 °F93 %29.81 inEast (80°)3.5 mph
11:00 AM43.2 °F40.6 °F91 %29.81 inEast (80°)3.5 mph
12:00 PM43.2 °F41.0 °F92 %29.81 inEast (90°)2.3 mph
1:00 PM43.0 °F41.2 °F93 %29.79 inEast (90°)3.5 mph0.04 in
2:00 PM43.2 °F41.5 °F94 %29.78 inEast (80°)3.5 mph0.02 in
3:00 PM43.5 °F40.3 °F88 %29.75 inEast (90°)3.5 mph
4:00 PM43.0 °F41.0 °F89 %29.77 inEast (80°)4.6 mph
4:00 PM43.2 °F40.8 °F91 %29.77 inEast (80°)4.6 mph
5:00 PM43.2 °F40.8 °F91 %29.75 inENE (70°)3.5 mph0.02 in
6:00 PM42.3 °F40.8 °F95 %29.77 inNE (40°)2.3 mph0.15 in
7:00 PM41.2 °F38.3 °F89 %29.77 inNorth (360°)2.3 mph
8:00 PM40.3 °F38.8 °F95 %29.78 inNE (50°)2.3 mph
9:00 PM41.4 °F37.9 °F88 %29.80 inENE (70°)4.6 mph
10:00 PM41.0 °F38.0 °F87 %29.81 inENE (70°)3.5 mph
10:00 PM40.8 °F38.5 °F91 %29.81 inENE (70°)3.5 mph0.03 in
11:00 PM41.0 °F39.2 °F93 %29.83 inENE (70°)2.3 mph0.02 in
Hourly data recorded from CWWA, located miles away from Vancouver - City Hall, British Columbia







STORIES FROM OUR PARTNERS